Aérodrome :
LOGIN :

S'inscrire | Disclaimer

   EN    FR    IT 

 










Légende :    VFR   VFR Marginal   IFR   IFR Intensif   IFR Très Intensif
Visi : 
Plafond : 
>= 8 km
>= 3000ft
5 à 8 km
1000 à 3000 ft
1500m à 5 km
500 à 1000 ft
800 à 1500m
200 à 500 ft
< 800m
< 200 ft
Symboles :   Orages  Brouillard  Fortes neiges  Fortes précipitations  Vent > 20 kt
SIGMETs :   Divers  Orages  Givrage  Turbulence  Onde Orograph.  Cendres Volcan.







- Altitude de l'aérodrome : 325 ft
- Code IATA : POX
- Voir les cartes d'approche


LFPT - Pontoise

DERNIER METAR :
  • 271330Z AUTO 28007KT 230V330 CAVOK 20/09 Q1011

METARs EXPIRÉS :
  • 271300Z AUTO 32010KT 9999 BKN045 19/07 Q1012
  • 271230Z AUTO 31009KT 270V340 9999 FEW042 SCT054 19/07 Q1012
  • 271200Z AUTO 33009KT 290V010 9999 BKN040 18/08 Q1012
  • 271130Z AUTO 31007KT 230V020 9999 SCT040 SCT046 18/09 Q1012
  • 271100Z AUTO 31009KT 9999 SCT033 BKN041 17/09 Q1012

TAF N/A
ATIS : +33 1 30 30 52 08
Pas de NOTAMs connus pour ce terrain.



MET'MAP, la Météo Aéronautique d'un coup d'oeil ! - Copyright ORBIFLY Décembre 2007 - Disclaimer

ORBIFLY MET'MAP TEAM :

Programmation & Développement : Alexandra Zaïnal
Conception & Développement : Baudouin d'Aumeries
Co-Programmation & Développement : Marc-Olivier Méhu
Soutien technique & logistique : Manuel Goepfert

Contact : metmap@orbifly.com




SOURCES & CREDITS :

   NOAA